| time (UTC) | temp F | wind direction | speed MPH | gust MPH | rain 1hr in | rain 24hr in | rain mn in | humidity % | barometer mb |
| 20260904101930 | 59 | 256 | 5.0 | 10.0 | 0.00 | 0.02 | 0.00 | 87 | 1012.5 |
| 20260904101417 | 60 | 263 | 5.0 | 10.0 | 0.00 | 0.02 | 0.00 | 87 | 1012.5 |
| 20260904100924 | 60 | 275 | 4.0 | 10.0 | 0.00 | 0.02 | 0.00 | 87 | 1012.5 |
| 20260904100430 | 60 | 275 | 7.0 | 10.0 | 0.00 | 0.02 | 0.00 | 87 | 1012.5 |
| 20260904095935 | 60 | 285 | 5.0 | 10.0 | 0.00 | 0.02 | 0.00 | 87 | 1012.5 |
| 20260904095423 | 60 | 282 | 5.0 | 10.0 | 0.00 | 0.02 | 0.00 | 86 | 1012.4 |
| 20260904094945 | 60 | 270 | 5.0 | 10.0 | 0.00 | 0.02 | 0.00 | 86 | 1012.4 |
| 20260904094430 | 60 | 292 | 4.0 | 11.0 | 0.00 | 0.02 | 0.00 | 86 | 1012.4 |
| 20260904093938 | 60 | 277 | 3.0 | 7.0 | 0.00 | 0.02 | 0.00 | 86 | 1012.4 |
| 20260904093423 | 60 | 244 | 2.0 | 5.0 | 0.00 | 0.02 | 0.00 | 86 | 1012.3 |
| 20260904092927 | 60 | 285 | 1.0 | 5.0 | 0.00 | 0.02 | 0.00 | 86 | 1012.4 |
| 20260904092433 | 60 | 330 | 2.0 | 7.0 | 0.00 | 0.02 | 0.00 | 86 | 1012.4 |
| 20260904091936 | 61 | 280 | 4.0 | 7.0 | 0.00 | 0.02 | 0.00 | 86 | 1012.5 |
| 20260904091423 | 61 | 337 | 4.0 | 8.0 | 0.00 | 0.02 | 0.00 | 86 | 1012.4 |
| 20260904090930 | 61 | 330 | 5.0 | 8.0 | 0.00 | 0.02 | 0.00 | 86 | 1012.3 |
| 20260904090437 | 61 | 349 | 3.0 | 7.0 | 0.00 | 0.02 | 0.00 | 86 | 1012.3 |
| 20260904085920 | 61 | 251 | 4.0 | 13.0 | 0.00 | 0.02 | 0.00 | 86 | 1012.3 |
| 20260904085449 | 61 | 295 | 7.0 | 13.0 | 0.00 | 0.02 | 0.00 | 86 | 1012.3 |
| 20260904084934 | 61 | 268 | 5.0 | 16.0 | 0.00 | 0.02 | 0.00 | 86 | 1012.3 |
| 20260904084419 | 61 | 296 | 7.0 | 16.0 | 0.00 | 0.02 | 0.00 | 86 | 1012.3 |
| 20260904083956 | 61 | 254 | 7.0 | 15.0 | 0.00 | 0.02 | 0.00 | 86 | 1012.2 |
| 20260904083441 | 61 | 239 | 7.0 | 13.0 | 0.00 | 0.02 | 0.00 | 86 | 1012.3 |
| 20260904082927 | 61 | 268 | 7.0 | 13.0 | 0.00 | 0.02 | 0.00 | 86 | 1012.2 |
| 20260904082432 | 61 | 282 | 6.0 | 12.0 | 0.00 | 0.02 | 0.00 | 86 | 1012.1 |
| 20260904081918 | 61 | 275 | 5.0 | 15.0 | 0.00 | 0.02 | 0.00 | 86 | 1012.1 |
| 20260904081422 | 61 | 290 | 9.0 | 18.0 | 0.00 | 0.02 | 0.00 | 86 | 1012.0 |
| 20260904080924 | 61 | 265 | 9.0 | 18.0 | 0.00 | 0.02 | 0.00 | 86 | 1012.1 |
| 20260904080428 | 61 | 237 | 7.0 | 15.0 | 0.00 | 0.02 | 0.00 | 86 | 1012.1 |
| 20260904075916 | 61 | 313 | 9.0 | 16.0 | 0.00 | 0.02 | 0.00 | 86 | 1012.1 |
| 20260904075425 | 61 | 264 | 10.0 | 16.0 | 0.00 | 0.02 | 0.00 | 86 | 1012.0 |
| 20260904074931 | 61 | 292 | 9.0 | 16.0 | 0.00 | 0.02 | 0.00 | 86 | 1012.0 |
| 20260904074437 | 61 | 273 | 9.0 | 16.0 | 0.00 | 0.02 | 0.00 | 86 | 1011.9 |
| 20260904073923 | 61 | 256 | 9.0 | 16.0 | 0.00 | 0.02 | 0.00 | 86 | 1012.1 |
| 20260904073426 | 61 | 285 | 9.0 | 15.0 | 0.00 | 0.02 | 0.00 | 85 | 1011.9 |
| 20260904072930 | 61 | 285 | 11.0 | 17.0 | 0.00 | 0.02 | 0.00 | 86 | 1011.9 |
| 20260904072439 | 61 | 287 | 11.0 | 17.0 | 0.00 | 0.02 | 0.00 | 86 | 1011.9 |
| 20260904071922 | 61 | 230 | 9.0 | 16.0 | 0.00 | 0.02 | 0.00 | 86 | 1012.0 |
| 20260904071430 | 61 | 277 | 9.0 | 15.0 | 0.00 | 0.02 | 0.00 | 86 | 1012.0 |
| 20260904070938 | 61 | 292 | 9.0 | 15.0 | 0.00 | 0.02 | 0.00 | 86 | 1012.0 |
| 20260904070442 | 61 | 295 | 8.0 | 13.0 | 0.00 | 0.02 | 0.00 | 86 | 1011.9 |
| 20260904065921 | 62 | 259 | 7.0 | 16.0 | 0.00 | 0.02 | 0.02 | 86 | 1012.0 |
| 20260904065457 | 62 | 277 | 9.0 | 16.0 | 0.00 | 0.02 | 0.02 | 85 | 1011.9 |
| 20260904064922 | 62 | 275 | 9.0 | 17.0 | 0.00 | 0.02 | 0.02 | 85 | 1012.0 |
| 20260904064427 | 62 | 259 | 9.0 | 17.0 | 0.00 | 0.02 | 0.02 | 85 | 1012.0 |
| 20260904063935 | 62 | 249 | 9.0 | 15.0 | 0.00 | 0.02 | 0.02 | 85 | 1011.8 |
| 20260904063422 | 62 | 302 | 9.0 | 16.0 | 0.00 | 0.02 | 0.02 | 85 | 1011.8 |
| 20260904062944 | 62 | 275 | 10.0 | 15.0 | 0.00 | 0.02 | 0.02 | 85 | 1011.9 |
| 20260904062431 | 62 | 249 | 8.0 | 13.0 | 0.00 | 0.02 | 0.02 | 85 | 1011.8 |
| 20260904061917 | 62 | 276 | 8.0 | 13.0 | 0.00 | 0.02 | 0.02 | 86 | 1011.8 |
| 20260904061423 | 62 | 296 | 7.0 | 11.0 | 0.00 | 0.02 | 0.02 | 86 | 1011.8 |
| 20260904060931 | 62 | 278 | 7.0 | 10.0 | 0.00 | 0.02 | 0.02 | 87 | 1011.8 |
| 20260904060435 | 62 | 261 | 5.0 | 8.0 | 0.00 | 0.02 | 0.02 | 87 | 1011.8 |
| 20260904055937 | 62 | 276 | 5.0 | 9.0 | 0.00 | 0.02 | 0.02 | 87 | 1011.9 |
| 20260904055450 | 61 | 256 | 5.0 | 8.0 | 0.00 | 0.02 | 0.02 | 87 | 1011.9 |
| 20260904054917 | 61 | 237 | 5.0 | 8.0 | 0.00 | 0.02 | 0.02 | 87 | 1012.0 |
| 20260904054425 | 61 | 280 | 4.0 | 13.0 | 0.00 | 0.02 | 0.02 | 87 | 1012.1 |
| 20260904053933 | 61 | 256 | 5.0 | 13.0 | 0.01 | 0.02 | 0.02 | 87 | 1012.2 |
| 20260904053419 | 61 | 278 | 8.0 | 13.0 | 0.01 | 0.02 | 0.02 | 87 | 1012.3 |
| 20260904052927 | 61 | 261 | 8.0 | 13.0 | 0.01 | 0.02 | 0.02 | 87 | 1012.4 |
| 20260904052436 | 61 | 257 | 7.0 | 14.0 | 0.01 | 0.02 | 0.02 | 87 | 1012.4 |
| 20260904051922 | 61 | 237 | 7.0 | 13.0 | 0.01 | 0.02 | 0.02 | 87 | 1012.5 |
| 20260904051421 | 61 | 252 | 7.0 | 13.0 | 0.01 | 0.02 | 0.02 | 88 | 1012.5 |
| 20260904050928 | 61 | 263 | 7.0 | 12.0 | 0.01 | 0.02 | 0.02 | 88 | 1012.5 |
| 20260904050434 | 61 | 275 | 6.0 | 12.0 | 0.01 | 0.02 | 0.02 | 88 | 1012.5 |
| 20260904045920 | 61 | 285 | 8.0 | 12.0 | 0.01 | 0.02 | 0.02 | 88 | 1012.5 |
| 20260904045432 | 61 | 311 | 8.0 | 13.0 | 0.01 | 0.02 | 0.02 | 88 | 1012.5 |
| 20260904044936 | 61 | 282 | 5.0 | 13.0 | 0.01 | 0.02 | 0.02 | 88 | 1012.6 |
| 20260904044440 | 61 | 276 | 6.0 | 13.0 | 0.01 | 0.02 | 0.02 | 88 | 1012.6 |
| 20260904043923 | 61 | 268 | 5.0 | 13.0 | 0.00 | 0.01 | 0.01 | 88 | 1012.6 |
| 20260904043429 | 62 | 316 | 7.0 | 11.0 | 0.00 | 0.01 | 0.01 | 88 | 1012.6 |
| 20260904042916 | 62 | 280 | 8.0 | 11.0 | 0.00 | 0.01 | 0.01 | 88 | 1012.6 |
| 20260904042424 | 62 | 268 | 5.0 | 12.0 | 0.00 | 0.01 | 0.01 | 88 | 1012.5 |
| 20260904041931 | 62 | 326 | 6.0 | 12.0 | 0.00 | 0.01 | 0.01 | 88 | 1012.5 |
| 20260904041434 | 62 | 282 | 5.0 | 10.0 | 0.00 | 0.01 | 0.01 | 88 | 1012.4 |
| 20260904040921 | 62 | 282 | 6.0 | 8.0 | 0.00 | 0.01 | 0.01 | 88 | 1012.3 |
| 20260904040426 | 62 | 278 | 3.0 | 5.0 | 0.01 | 0.01 | 0.01 | 88 | 1012.3 |
| 20260904035928 | 62 | 215 | 2.0 | 4.0 | 0.01 | 0.01 | 0.01 | 88 | 1012.2 |
| 20260904035434 | 62 | 268 | 1.0 | 2.0 | 0.01 | 0.01 | 0.01 | 88 | 1012.2 |
| 20260904034921 | 62 | 222 | 0.0 | 3.0 | 0.01 | 0.01 | 0.01 | 88 | 1012.2 |
| 20260904034429 | 62 | 215 | 1.0 | 3.0 | 0.01 | 0.01 | 0.01 | 88 | 1012.2 |
| 20260904033935 | 62 | 285 | 2.0 | 4.0 | 0.01 | 0.01 | 0.01 | 88 | 1012.0 |
| 20260904033421 | 62 | 261 | 3.0 | 5.0 | 0.01 | 0.01 | 0.01 | 87 | 1012.0 |
| 20260904032923 | 62 | 275 | 2.0 | 7.0 | 0.01 | 0.01 | 0.01 | 87 | 1012.0 |
| 20260904032425 | 62 | 290 | 4.0 | 7.0 | 0.01 | 0.01 | 0.01 | 87 | 1012.0 |
| 20260904031931 | 62 | 271 | 4.0 | 7.0 | 0.01 | 0.01 | 0.01 | 87 | 1011.9 |
| 20260904031418 | 62 | 212 | 3.0 | 7.0 | 0.01 | 0.01 | 0.01 | 87 | 1011.9 |
| 20260904030928 | 62 | 252 | 3.0 | 7.0 | 0.01 | 0.01 | 0.01 | 87 | 1011.9 |
| 20260904030435 | 62 | 290 | 2.0 | 7.0 | 0.00 | 0.00 | 0.00 | 87 | 1011.8 |
| 20260904025921 | 62 | 283 | 3.0 | 10.0 | 0.00 | 0.00 | 0.00 | 87 | 1011.8 |
| 20260904025424 | 62 | 289 | 4.0 | 12.0 | 0.00 | 0.00 | 0.00 | 87 | 1011.9 |
| 20260904024933 | 62 | 273 | 7.0 | 13.0 | 0.00 | 0.00 | 0.00 | 87 | 1011.9 |
| 20260904024435 | 62 | 329 | 7.0 | 13.0 | 0.00 | 0.00 | 0.00 | 87 | 1012.0 |
| 20260904023950 | 62 | 301 | 7.0 | 14.0 | 0.00 | 0.00 | 0.00 | 87 | 1012.0 |
| 20260904023436 | 62 | 268 | 7.0 | 14.0 | 0.00 | 0.00 | 0.00 | 87 | 1012.0 |
| 20260904022923 | 62 | 283 | 8.0 | 11.0 | 0.00 | 0.00 | 0.00 | 87 | 1012.1 |
| 20260904022431 | 62 | 310 | 6.0 | 14.0 | 0.00 | 0.00 | 0.00 | 86 | 1012.1 |
| 20260904021918 | 62 | 270 | 9.0 | 15.0 | 0.00 | 0.00 | 0.00 | 86 | 1012.1 |
| 20260904021423 | 62 | 284 | 8.0 | 15.0 | 0.00 | 0.00 | 0.00 | 86 | 1012.1 |
| 20260904020929 | 63 | 305 | 8.0 | 15.0 | 0.00 | 0.00 | 0.00 | 86 | 1012.2 |
| 20260904020436 | 63 | 242 | 7.0 | 13.0 | 0.00 | 0.00 | 0.00 | 86 | 1012.1 |
| 20260904015917 | 63 | 274 | 8.0 | 12.0 | 0.00 | 0.00 | 0.00 | 86 | 1012.0 |
| 20260904015425 | 64 | 256 | 8.0 | 12.0 | 0.00 | 0.00 | 0.00 | 86 | 1012.0 |
| 20260904014931 | 64 | 280 | 6.0 | 13.0 | 0.00 | 0.00 | 0.00 | 85 | 1012.1 |
| 20260904014436 | 64 | 273 | 3.0 | 16.0 | 0.00 | 0.00 | 0.00 | 85 | 1012.0 |
| 20260904013953 | 64 | 219 | 7.0 | 16.0 | 0.00 | 0.00 | 0.00 | 85 | 1012.0 |
| 20260904013420 | 64 | 221 | 5.0 | 15.0 | 0.00 | 0.00 | 0.00 | 85 | 1012.1 |
| 20260904012922 | 64 | 238 | 8.0 | 17.0 | 0.00 | 0.00 | 0.00 | 84 | 1012.1 |
| 20260904012430 | 65 | 219 | 9.0 | 17.0 | 0.00 | 0.00 | 0.00 | 84 | 1012.1 |
| 20260904011936 | 66 | 242 | 4.0 | 18.0 | 0.00 | 0.00 | 0.00 | 84 | 1012.0 |
| 20260904011422 | 66 | 276 | 6.0 | 17.0 | 0.00 | 0.00 | 0.00 | 84 | 1012.1 |
| 20260904010929 | 66 | 263 | 8.0 | 17.0 | 0.00 | 0.00 | 0.00 | 83 | 1012.0 |
| 20260904010436 | 66 | 206 | 7.0 | 13.0 | 0.00 | 0.00 | 0.00 | 83 | 1012.1 |
| 20260904005952 | 66 | 277 | 6.0 | 17.0 | 0.00 | 0.00 | 0.00 | 83 | 1012.2 |
| 20260904005436 | 66 | 305 | 10.0 | 17.0 | 0.00 | 0.00 | 0.00 | 82 | 1012.3 |
| 20260904004921 | 66 | 299 | 6.0 | 17.0 | 0.00 | 0.00 | 0.00 | 82 | 1012.3 |
| 20260904004444 | 67 | 230 | 7.0 | 20.0 | 0.00 | 0.00 | 0.00 | 82 | 1012.2 |
| 20260904003931 | 67 | 227 | 7.0 | 19.0 | 0.00 | 0.00 | 0.00 | 82 | 1012.2 |
| 20260904003418 | 67 | 195 | 8.0 | 21.0 | 0.00 | 0.00 | 0.00 | 82 | 1012.2 |
| 20260904002924 | 67 | 210 | 13.0 | 21.0 | 0.00 | 0.00 | 0.00 | 81 | 1012.3 |
| 20260904002428 | 67 | 207 | 8.0 | 19.0 | 0.00 | 0.00 | 0.00 | 81 | 1012.2 |
| 20260904001932 | 67 | 183 | 9.0 | 19.0 | 0.00 | 0.00 | 0.00 | 81 | 1012.3 |
| 20260904001418 | 67 | 194 | 9.0 | 17.0 | 0.00 | 0.00 | 0.00 | 81 | 1012.2 |
| 20260904000944 | 67 | 229 | 6.0 | 19.0 | 0.00 | 0.00 | 0.00 | 81 | 1012.5 |
| 20260904000432 | 67 | 245 | 8.0 | 20.0 | 0.00 | 0.00 | 0.00 | 80 | 1012.4 |
| 20260903235936 | 68 | 219 | 9.0 | 20.0 | 0.00 | 0.00 | 0.00 | 78 | 1012.4 |
| 20260903235424 | 68 | 203 | 4.0 | 16.0 | 0.00 | 0.00 | 0.00 | 77 | 1012.6 |
| 20260903234930 | 69 | 249 | 7.0 | 16.0 | 0.00 | 0.00 | 0.00 | 76 | 1012.5 |
| 20260903234432 | 69 | 214 | 5.0 | 13.0 | 0.00 | 0.00 | 0.00 | 75 | 1012.5 |
| 20260903233916 | 69 | 230 | 8.0 | 19.0 | 0.00 | 0.00 | 0.00 | 75 | 1012.5 |
| 20260903233421 | 69 | 259 | 9.0 | 20.0 | 0.00 | 0.00 | 0.00 | 75 | 1012.5 |
| 20260903232929 | 69 | 242 | 6.0 | 18.0 | 0.00 | 0.00 | 0.00 | 75 | 1012.6 |
| 20260903232435 | 69 | 220 | 9.0 | 18.0 | 0.00 | 0.00 | 0.00 | 75 | 1012.7 |
| 20260903231941 | 69 | 257 | 8.0 | 17.0 | 0.00 | 0.00 | 0.00 | 74 | 1012.6 |
| 20260903231442 | 69 | 249 | 9.0 | 19.0 | 0.00 | 0.00 | 0.00 | 74 | 1012.7 |
| 20260903230926 | 69 | 201 | 10.0 | 19.0 | 0.00 | 0.00 | 0.00 | 74 | 1012.9 |
| 20260903230434 | 70 | 242 | 8.0 | 18.0 | 0.00 | 0.00 | 0.00 | 74 | 1013.0 |
| 20260903225918 | 70 | 230 | 5.0 | 18.0 | 0.00 | 0.00 | 0.00 | 75 | 1013.1 |
| 20260903225426 | 70 | 226 | 8.0 | 17.0 | 0.00 | 0.00 | 0.00 | 74 | 1013.1 |
| 20260903224933 | 70 | 261 | 7.0 | 13.0 | 0.00 | 0.00 | 0.00 | 75 | 1013.1 |
| 20260903224422 | 69 | 268 | 6.0 | 20.0 | 0.00 | 0.00 | 0.00 | 75 | 1013.2 |
| 20260903223929 | 69 | 219 | 12.0 | 20.0 | 0.00 | 0.00 | 0.00 | 75 | 1013.2 |
| 20260903223459 | 69 | 217 | 8.0 | 19.0 | 0.00 | 0.00 | 0.00 | 75 | 1013.4 |
| 20260903222952 | 69 | 212 | 10.0 | 22.0 | 0.00 | 0.00 | 0.00 | 75 | 1013.3 |
| 20260903222436 | 69 | 242 | 9.0 | 22.0 | 0.00 | 0.00 | 0.00 | 74 | 1013.3 |
| 20260903221952 | 70 | 228 | 9.0 | 19.0 | 0.00 | 0.00 | 0.00 | 74 | 1013.4 |
| 20260903221418 | 70 | 218 | 7.0 | 15.0 | 0.00 | 0.00 | 0.00 | 74 | 1013.5 |
| 20260903220927 | 70 | 226 | 6.0 | 15.0 | 0.00 | 0.00 | 0.00 | 74 | 1013.5 |
| 20260903220429 | 70 | 206 | 8.0 | 16.0 | 0.00 | 0.00 | 0.00 | 74 | 1013.6 |
| 20260903215935 | 70 | 306 | 8.0 | 16.0 | 0.00 | 0.00 | 0.00 | 73 | 1013.5 |
| 20260903215451 | 71 | 242 | 8.0 | 15.0 | 0.00 | 0.00 | 0.00 | 74 | 1013.6 |
| 20260903214918 | 70 | 251 | 7.0 | 16.0 | 0.00 | 0.00 | 0.00 | 75 | 1013.7 |
| 20260903214447 | 70 | 242 | 9.0 | 16.0 | 0.00 | 0.00 | 0.00 | 75 | 1013.7 |
| 20260903213937 | 69 | 239 | 5.0 | 17.0 | 0.00 | 0.00 | 0.00 | 76 | 1013.7 |
| 20260903213423 | 69 | 282 | 8.0 | 17.0 | 0.00 | 0.00 | 0.00 | 75 | 1013.7 |
| 20260903212927 | 69 | 213 | 4.0 | 17.0 | 0.00 | 0.00 | 0.00 | 75 | 1013.8 |
| 20260903212434 | 69 | 282 | 8.0 | 17.0 | 0.00 | 0.00 | 0.00 | 75 | 1013.8 |
| 20260903211920 | 69 | 221 | 6.0 | 15.0 | 0.00 | 0.00 | 0.00 | 74 | 1013.9 |
| 20260903211426 | 69 | 256 | 6.0 | 15.0 | 0.00 | 0.00 | 0.00 | 74 | 1013.9 |
| 20260903210932 | 69 | 192 | 7.0 | 17.0 | 0.00 | 0.00 | 0.00 | 73 | 1014.0 |
| 20260903210420 | 70 | 249 | 7.0 | 17.0 | 0.00 | 0.00 | 0.00 | 73 | 1014.0 |
| 20260903205923 | 70 | 194 | 6.0 | 13.0 | 0.00 | 0.00 | 0.00 | 73 | 1014.0 |
| 20260903205425 | 70 | 234 | 7.0 | 13.0 | 0.00 | 0.00 | 0.00 | 73 | 1014.1 |
| 20260903204931 | 70 | 261 | 7.0 | 13.0 | 0.00 | 0.00 | 0.00 | 72 | 1014.0 |
| 20260903204417 | 70 | 227 | 5.0 | 12.0 | 0.00 | 0.00 | 0.00 | 73 | 1014.1 |
| 20260903203944 | 70 | 217 | 5.0 | 18.0 | 0.00 | 0.00 | 0.00 | 73 | 1014.0 |
| 20260903203432 | 69 | 249 | 5.0 | 16.0 | 0.00 | 0.00 | 0.00 | 74 | 1014.1 |
| 20260903202917 | 69 | 235 | 6.0 | 16.0 | 0.00 | 0.00 | 0.00 | 74 | 1014.1 |
| 20260903202426 | 69 | 250 | 7.0 | 15.0 | 0.00 | 0.00 | 0.00 | 75 | 1014.1 |
| 20260903201931 | 69 | 259 | 7.0 | 16.0 | 0.00 | 0.00 | 0.00 | 74 | 1014.0 |
| 20260903201445 | 69 | 278 | 8.0 | 15.0 | 0.00 | 0.00 | 0.00 | 74 | 1014.1 |
| 20260903200932 | 69 | 233 | 7.0 | 18.0 | 0.00 | 0.00 | 0.00 | 74 | 1014.1 |
| 20260903200417 | 69 | 211 | 8.0 | 13.0 | 0.00 | 0.00 | 0.00 | 74 | 1014.1 |
| 20260903195919 | 69 | 251 | 4.0 | 17.0 | 0.00 | 0.00 | 0.00 | 75 | 1014.2 |
| 20260903195424 | 69 | 242 | 10.0 | 17.0 | 0.00 | 0.00 | 0.00 | 74 | 1014.2 |
| 20260903194930 | 69 | 221 | 3.0 | 14.0 | 0.00 | 0.00 | 0.00 | 75 | 1014.2 |
| 20260903194417 | 68 | 240 | 5.0 | 16.0 | 0.00 | 0.00 | 0.00 | 76 | 1014.2 |
| 20260903193923 | 68 | 282 | 7.0 | 15.0 | 0.00 | 0.00 | 0.00 | 75 | 1014.5 |
| 20260903193431 | 68 | 226 | 9.0 | 15.0 | 0.00 | 0.00 | 0.00 | 75 | 1014.4 |
| 20260903192916 | 68 | 94 | 7.0 | 14.0 | 0.00 | 0.00 | 0.00 | 75 | 1014.6 |
| 20260903192425 | 68 | 242 | 8.0 | 13.0 | 0.00 | 0.00 | 0.00 | 74 | 1014.6 |
| 20260903191934 | 69 | 216 | 6.0 | 13.0 | 0.00 | 0.00 | 0.00 | 73 | 1014.7 |
| 20260903191421 | 69 | 242 | 6.0 | 12.0 | 0.00 | 0.00 | 0.00 | 73 | 1014.7 |
| 20260903190927 | 69 | 261 | 8.0 | 16.0 | 0.00 | 0.00 | 0.00 | 73 | 1014.7 |
| 20260903190457 | 69 | 203 | 5.0 | 16.0 | 0.00 | 0.00 | 0.00 | 73 | 1014.7 |
| 20260903185934 | 69 | 230 | 5.0 | 12.0 | 0.00 | 0.00 | 0.00 | 73 | 1014.7 |
| 20260903185420 | 68 | 270 | 5.0 | 13.0 | 0.00 | 0.00 | 0.00 | 73 | 1014.8 |
| 20260903184927 | 68 | 235 | 4.0 | 17.0 | 0.00 | 0.00 | 0.00 | 74 | 1014.9 |
| 20260903184431 | 68 | 203 | 6.0 | 12.0 | 0.00 | 0.00 | 0.00 | 74 | 1014.9 |
| 20260903183936 | 68 | 219 | 5.0 | 12.0 | 0.00 | 0.00 | 0.00 | 74 | 1014.9 |
| 20260903183446 | 68 | 194 | 6.0 | 11.0 | 0.00 | 0.00 | 0.00 | 74 | 1014.8 |
| 20260903182932 | 68 | 215 | 4.0 | 10.0 | 0.00 | 0.00 | 0.00 | 74 | 1014.9 |
| 20260903182439 | 68 | 246 | 6.0 | 13.0 | 0.00 | 0.00 | 0.00 | 74 | 1014.9 |
| 20260903181947 | 67 | 186 | 7.0 | 15.0 | 0.00 | 0.00 | 0.00 | 74 | 1014.9 |
| 20260903181434 | 67 | 177 | 8.0 | 16.0 | 0.00 | 0.00 | 0.00 | 73 | 1014.9 |
| 20260903180919 | 67 | 236 | 9.0 | 16.0 | 0.00 | 0.00 | 0.00 | 73 | 1014.8 |
| 20260903180424 | 67 | 239 | 7.0 | 16.0 | 0.00 | 0.00 | 0.00 | 73 | 1014.7 |
| 20260903175929 | 67 | 216 | 9.0 | 16.0 | 0.00 | 0.00 | 0.00 | 73 | 1014.7 |
| 20260903175435 | 68 | 232 | 8.0 | 17.0 | 0.00 | 0.00 | 0.00 | 73 | 1014.7 |
| 20260903174923 | 68 | 231 | 9.0 | 17.0 | 0.00 | 0.00 | 0.00 | 73 | 1014.7 |
| 20260903174428 | 68 | 213 | 5.0 | 13.0 | 0.00 | 0.00 | 0.00 | 73 | 1014.7 |
| 20260903173932 | 68 | 206 | 6.0 | 11.0 | 0.00 | 0.00 | 0.00 | 74 | 1014.6 |
| 20260903173439 | 67 | 222 | 5.0 | 12.0 | 0.00 | 0.00 | 0.00 | 74 | 1014.6 |
| 20260903172922 | 67 | 209 | 4.0 | 12.0 | 0.00 | 0.00 | 0.00 | 74 | 1014.6 |
| 20260903172425 | 67 | 186 | 3.0 | 14.0 | 0.00 | 0.00 | 0.00 | 74 | 1014.7 |
| 20260903171935 | 67 | 196 | 6.0 | 12.0 | 0.00 | 0.00 | 0.00 | 74 | 1014.7 |
| 20260903171419 | 67 | 207 | 5.0 | 14.0 | 0.00 | 0.00 | 0.00 | 75 | 1014.7 |
| 20260903170924 | 66 | 222 | 5.0 | 14.0 | 0.00 | 0.00 | 0.00 | 75 | 1014.7 |
| 20260903170431 | 66 | 242 | 6.0 | 14.0 | 0.00 | 0.00 | 0.00 | 76 | 1014.8 |
| 20260903165935 | 66 | 219 | 7.0 | 13.0 | 0.00 | 0.00 | 0.00 | 76 | 1015.0 |
| 20260903165419 | 66 | 222 | 3.0 | 13.0 | 0.00 | 0.00 | 0.00 | 76 | 1015.0 |
| 20260903164943 | 65 | 220 | 3.0 | 14.0 | 0.00 | 0.00 | 0.00 | 76 | 1015.0 |
| 20260903164428 | 65 | 218 | 7.0 | 14.0 | 0.00 | 0.00 | 0.00 | 76 | 1014.9 |
| 20260903163936 | 65 | 212 | 7.0 | 14.0 | 0.00 | 0.00 | 0.00 | 76 | 1015.0 |
| 20260903163443 | 65 | 215 | 6.0 | 12.0 | 0.00 | 0.00 | 0.00 | 76 | 1015.1 |
| 20260903162926 | 65 | 222 | 6.0 | 13.0 | 0.00 | 0.00 | 0.00 | 76 | 1015.2 |
| 20260903162432 | 65 | 223 | 4.0 | 9.0 | 0.00 | 0.00 | 0.00 | 77 | 1015.1 |
| 20260903161921 | 65 | 201 | 3.0 | 9.0 | 0.00 | 0.00 | 0.00 | 77 | 1015.2 |
| 20260903161422 | 65 | 185 | 3.0 | 9.0 | 0.00 | 0.00 | 0.00 | 77 | 1015.2 |
| 20260903160920 | 65 | 219 | 5.0 | 10.0 | 0.00 | 0.00 | 0.00 | 77 | 1015.3 |
| 20260903160426 | 65 | 251 | 3.0 | 6.0 | 0.00 | 0.00 | 0.00 | 78 | 1015.2 |
| 20260903155930 | 65 | 177 | 2.0 | 6.0 | 0.00 | 0.00 | 0.00 | 78 | 1015.2 |
| 20260903155417 | 64 | 222 | 3.0 | 6.0 | 0.00 | 0.00 | 0.00 | 78 | 1015.3 |
| 20260903154923 | 64 | 209 | 2.0 | 6.0 | 0.00 | 0.00 | 0.00 | 79 | 1015.3 |
| 20260903154446 | 64 | 225 | 3.0 | 6.0 | 0.00 | 0.00 | 0.00 | 79 | 1015.2 |
| 20260903153931 | 64 | 268 | 2.0 | 6.0 | 0.00 | 0.00 | 0.00 | 80 | 1015.3 |
| 20260903153417 | 64 | 177 | 2.0 | 6.0 | 0.00 | 0.00 | 0.00 | 80 | 1015.2 |
| 20260903152922 | 64 | 171 | 2.0 | 6.0 | 0.00 | 0.00 | 0.00 | 80 | 1015.2 |
| 20260903152430 | 64 | 102 | 2.0 | 6.0 | 0.00 | 0.00 | 0.00 | 81 | 1015.4 |
| 20260903151935 | 63 | 154 | 1.0 | 5.0 | 0.00 | 0.00 | 0.00 | 81 | 1015.2 |
| 20260903151421 | 63 | 256 | 2.0 | 4.0 | 0.00 | 0.00 | 0.00 | 82 | 1015.2 |
| 20260903150926 | 63 | 219 | 1.0 | 5.0 | 0.00 | 0.00 | 0.00 | 82 | 1015.3 |
| 20260903150456 | 63 | 162 | 3.0 | 6.0 | 0.00 | 0.00 | 0.00 | 82 | 1015.2 |
| 20260903145939 | 63 | 247 | 2.0 | 6.0 | 0.00 | 0.00 | 0.00 | 83 | 1015.1 |
| 20260903145427 | 63 | 116 | 1.0 | 6.0 | 0.00 | 0.00 | 0.00 | 84 | 1015.2 |
| 20260903144934 | 63 | 62 | 2.0 | 6.0 | 0.00 | 0.00 | 0.00 | 84 | 1015.1 |
| 20260903144419 | 63 | 45 | 2.0 | 4.0 | 0.00 | 0.00 | 0.00 | 84 | 1015.1 |
| 20260903143925 | 62 | 232 | 2.0 | 4.0 | 0.00 | 0.00 | 0.00 | 85 | 1015.1 |
| 20260903143428 | 62 | 142 | 2.0 | 5.0 | 0.00 | 0.00 | 0.00 | 85 | 1015.1 |
| 20260903142930 | 62 | 222 | 1.0 | 5.0 | 0.00 | 0.00 | 0.00 | 85 | 1015.1 |
| 20260903142418 | 62 | 134 | 2.0 | 5.0 | 0.00 | 0.00 | 0.00 | 85 | 1015.0 |
| 20260903141925 | 62 | 160 | 1.0 | 5.0 | 0.00 | 0.00 | 0.00 | 85 | 1014.9 |
| 20260903141434 | 62 | 242 | 2.0 | 4.0 | 0.00 | 0.00 | 0.00 | 86 | 1014.8 |
| 20260903140919 | 62 | 55 | 2.0 | 5.0 | 0.00 | 0.00 | 0.00 | 85 | 1014.9 |
| 20260903140424 | 61 | 222 | 1.0 | 5.0 | 0.00 | 0.00 | 0.00 | 85 | 1014.8 |
| 20260903135927 | 61 | 137 | 1.0 | 3.0 | 0.00 | 0.00 | 0.00 | 85 | 1014.9 |
| 20260903135431 | 61 | 12 | 1.0 | 7.0 | 0.00 | 0.00 | 0.00 | 85 | 1015.0 |
| 20260903134918 | 61 | 216 | 3.0 | 7.0 | 0.00 | 0.00 | 0.00 | 85 | 1015.0 |
| 20260903134424 | 61 | 246 | 3.0 | 8.0 | 0.00 | 0.00 | 0.00 | 85 | 1014.9 |
| 20260903133932 | 61 | 295 | 4.0 | 8.0 | 0.00 | 0.00 | 0.00 | 86 | 1014.8 |
| 20260903133417 | 61 | 232 | 4.0 | 7.0 | 0.00 | 0.00 | 0.00 | 86 | 1014.9 |
| 20260903132921 | 61 | 177 | 2.0 | 6.0 | 0.00 | 0.00 | 0.00 | 86 | 1014.8 |
| 20260903132426 | 61 | 200 | 3.0 | 9.0 | 0.00 | 0.00 | 0.00 | 86 | 1014.8 |
| 20260903131931 | 61 | 232 | 5.0 | 9.0 | 0.00 | 0.00 | 0.00 | 86 | 1014.7 |
| 20260903131439 | 61 | 205 | 4.0 | 9.0 | 0.00 | 0.00 | 0.00 | 86 | 1014.8 |
| 20260903130925 | 61 | 211 | 3.0 | 8.0 | 0.00 | 0.00 | 0.00 | 86 | 1014.8 |
| 20260903130433 | 61 | 249 | 3.0 | 6.0 | 0.00 | 0.00 | 0.00 | 86 | 1014.8 |
| 20260903125917 | 61 | 207 | 1.0 | 3.0 | 0.00 | 0.00 | 0.00 | 86 | 1014.9 |
| 20260903125424 | 61 | 67 | 1.0 | 3.0 | 0.00 | 0.00 | 0.00 | 86 | 1014.8 |
| 20260903124930 | 61 | 55 | 1.0 | 3.0 | 0.00 | 0.00 | 0.00 | 86 | 1014.7 |
| 20260903124435 | 61 | 209 | 1.0 | 3.0 | 0.00 | 0.00 | 0.00 | 85 | 1014.8 |
| 20260903123952 | 61 | 209 | 2.0 | 4.0 | 0.00 | 0.00 | 0.00 | 85 | 1014.8 |
| 20260903123417 | 61 | 189 | 2.0 | 6.0 | 0.00 | 0.00 | 0.00 | 85 | 1014.9 |
| 20260903122924 | 61 | 214 | 3.0 | 6.0 | 0.00 | 0.00 | 0.00 | 85 | 1014.8 |
| 20260903122431 | 61 | 215 | 1.0 | 4.0 | 0.00 | 0.00 | 0.00 | 85 | 1014.8 |
| 20260903121919 | 62 | 88 | 1.0 | 7.0 | 0.00 | 0.00 | 0.00 | 85 | 1014.9 |
| 20260903121446 | 62 | 212 | 2.0 | 7.0 | 0.00 | 0.00 | 0.00 | 85 | 1015.0 |
| 20260903120930 | 62 | 222 | 3.0 | 6.0 | 0.00 | 0.00 | 0.00 | 85 | 1015.1 |
| 20260903120435 | 62 | 205 | 3.0 | 6.0 | 0.00 | 0.00 | 0.00 | 85 | 1015.2 |
| 20260903115939 | 62 | 226 | 2.0 | 9.0 | 0.00 | 0.00 | 0.00 | 85 | 1015.2 |
| 20260903115455 | 62 | 223 | 4.0 | 9.0 | 0.00 | 0.00 | 0.00 | 85 | 1015.2 |
| 20260903114940 | 62 | 206 | 3.0 | 6.0 | 0.00 | 0.00 | 0.00 | 85 | 1015.2 |
| 20260903114425 | 62 | 196 | 3.0 | 6.0 | 0.00 | 0.00 | 0.00 | 85 | 1015.3 |
| 20260903113927 | 62 | 202 | 3.0 | 6.0 | 0.00 | 0.00 | 0.00 | 85 | 1015.3 |
| 20260903113432 | 62 | 222 | 4.0 | 6.0 | 0.00 | 0.00 | 0.00 | 85 | 1015.4 |
| 20260903112919 | 62 | 210 | 2.0 | 7.0 | 0.00 | 0.00 | 0.00 | 85 | 1015.4 |
| 20260903112427 | 62 | 205 | 3.0 | 6.0 | 0.00 | 0.00 | 0.00 | 85 | 1015.4 |
| 20260903111933 | 62 | 214 | 2.0 | 6.0 | 0.00 | 0.00 | 0.00 | 85 | 1015.5 |
| 20260903111421 | 62 | 151 | 3.0 | 7.0 | 0.00 | 0.00 | 0.00 | 85 | 1015.6 |
| 20260903110926 | 62 | 268 | 4.0 | 7.0 | 0.00 | 0.00 | 0.00 | 85 | 1015.6 |
| 20260903110432 | 62 | 200 | 3.0 | 9.0 | 0.00 | 0.00 | 0.00 | 85 | 1015.6 |
| 20260903105934 | 62 | 219 | 6.0 | 10.0 | 0.00 | 0.00 | 0.00 | 85 | 1015.7 |
| 20260903105420 | 62 | 226 | 5.0 | 9.0 | 0.00 | 0.00 | 0.00 | 85 | 1015.7 |
| 20260903104930 | 62 | 232 | 5.0 | 8.0 | 0.00 | 0.00 | 0.00 | 85 | 1015.8 |
| 20260903104417 | 62 | 215 | 6.0 | 9.0 | 0.00 | 0.00 | 0.00 | 85 | 1015.7 |
| 20260903103924 | 62 | 164 | 5.0 | 9.0 | 0.00 | 0.00 | 0.00 | 85 | 1015.7 |
| 20260903103429 | 62 | 177 | 5.0 | 9.0 | 0.00 | 0.00 | 0.00 | 85 | 1015.6 |
| 20260903102934 | 62 | 214 | 2.0 | 7.0 | 0.00 | 0.00 | 0.00 | 85 | 1015.7 |
| 20260903102420 | 62 | 216 | 2.0 | 7.0 | 0.00 | 0.00 | 0.00 | 85 | 1015.7 |